Location: *
(45.9500°N, 9.0833°E)
Time: 06:10:12
(UTC+00:00)

Gbstr 26 Del rocket - Pass Details

Date: 03 March 2021
Orbit: 492 x 1264 km, 51.8° (Epoch: 18 April)

Event Time Altitude Azimuth Distance (km) Brightness Sun altitude
Rises 18:07:30 0° 271° (W) 2,750 8.8 -10.2°
Reaches altitude 10° 18:09:39 10° 278° (W) 1,932 7.2 -10.6°
Maximum altitude 18:13:53 45° 352° (N) 917 4.0 -11.4°
Enters shadow 18:18:30 12° 63° (ENE) 2,160 5.3 -12.2°
